"startDT [UTC]","vpos","CH4 [ppm]","stdev(CH4) [ppm]","CO2 [ppm]","stdev(CO2) [ppm]","H2O_reported [%]","stdev(H2O_reported)","CavityPressure [torr]","CavityTemp [C]","OutletValve","CH4_dry [ppm]","CO2_dry [ppm]","DasTemp [C]","EtalonTemp [C]","WarmBoxTemp [C]","MPVPosition","T_ECpre [C]","T_EC1 [C]","T_EC2 [C]","p_inlet [hPa]","p_in [hPa]","p_out [hPa]","T_inlet [C]","RH_inlet [%]","dwpt_inlet [C]","T_vent [C]","RH_vent [%]","dwpt_vent [C]","flow_vent [l min-1]","flow_inlet [l min-1]","dwpt_sample [C]","T_room [C]"
2013-12-21 00:00:00,0.0,1.91071,0.00039,404.892,0.000,0.1342,0.0005,139.999,45.000,31773.89234,1.91311,405.548,31.813,45.060,45.000,0.00,0.11,-272.58,-272.64,-22,577,-4,22.9,3.9,-21.6,22.9,4.0,-21.3,5.73,2.68,-9.9,26.3
2013-12-21 00:01:00,0.0,1.91078,0.00022,404.892,0.000,0.1330,0.0013,140.003,45.000,31771.50502,1.91331,405.543,31.813,45.060,45.000,0.00,0.11,-272.58,-272.64,-22,578,-4,22.9,3.9,-21.7,22.9,4.0,-21.4,5.73,2.54,-9.9,26.3
2013-12-21 00:02:00,0.0,1.91172,0.00052,404.892,0.000,0.1298,0.0017,140.009,45.000,31772.81464,1.91393,405.526,31.813,45.060,45.000,0.00,0.11,-272.57,-272.63,-22,577,-4,22.9,3.8,-21.8,22.9,3.9,-21.5,5.73,2.58,-9.9,26.4
2013-12-21 00:03:00,0.0,1.91167,0.00037,404.892,0.000,0.1289,0.0021,140.003,45.000,31770.35374,1.91416,405.524,31.813,45.060,45.000,0.00,0.11,-272.58,-272.64,-22,578,-4,22.9,3.7,-22.0,22.9,3.9,-21.7,5.73,2.65,-9.9,26.4
2013-12-21 00:04:00,0.0,1.91151,0.00030,404.892,0.000,0.1268,0.0008,139.997,45.000,31768.48823,1.91387,405.510,31.805,45.060,45.000,0.00,0.11,-272.58,-272.64,-22,577,-4,22.9,3.7,-22.2,22.9,3.8,-21.9,5.73,2.50,-9.9,26.5
2013-12-21 00:05:00,0.0,1.91189,0.00031,404.892,0.000,0.1288,0.0009,140.001,45.000,31769.31016,1.91436,405.518,31.809,45.060,45.000,0.00,0.11,-272.58,-272.64,-21,578,-4,22.9,3.7,-22.1,22.9,3.8,-21.8,5.73,2.70,-9.9,26.3
2013-12-21 00:06:00,0.0,1.91133,0.00042,404.892,0.000,0.1262,0.0013,139.993,45.000,31767.54843,1.91378,405.511,31.813,45.060,45.000,0.00,0.11,-272.57,-272.64,-22,578,-4,22.9,3.7,-22.2,22.9,3.8,-21.9,5.73,2.50,-9.9,26.4
2013-12-21 00:07:00,0.0,1.91138,0.00018,404.892,0.000,0.1302,0.0017,140.001,45.000,31770.20655,1.91375,405.522,31.813,45.060,45.000,0.00,0.11,-272.58,-272.64,-22,578,-4,22.9,3.7,-22.2,22.9,3.8,-21.9,5.73,2.65,-9.9,26.6
2013-12-21 00:08:00,0.0,1.91144,0.00023,404.892,0.000,0.1301,0.0022,140.002,45.000,31769.68127,1.91393,405.526,31.813,45.060,45.000,0.00,0.11,-272.58,-272.64,-22,578,-4,22.9,3.7,-22.1,22.9,3.8,-21.8,5.73,2.60,-9.9,26.5
2013-12-21 00:09:00,0.0,1.91133,0.00018,404.892,0.000,0.1321,0.0028,140.003,45.000,31770.55104,1.91375,405.533,31.813,45.060,45.000,0.00,0.11,-272.57,-272.64,-22,578,-4,22.9,3.8,-21.9,22.9,3.9,-21.7,5.73,2.54,-9.9,26.4
2013-12-21 00:10:00,0.0,1.91126,0.00039,404.892,0.000,0.1333,0.0014,139.999,45.000,31770.82359,1.91383,405.544,31.813,45.060,45.000,0.00,0.11,-272.57,-272.64,-22,578,-4,22.9,3.8,-21.8,22.9,3.9,-21.5,5.73,2.69,-9.9,26.3
2013-12-21 00:11:00,0.0,1.91109,0.00032,404.889,0.004,0.1331,0.0018,140.005,45.000,31771.31649,1.91360,405.539,31.813,45.060,45.000,0.00,0.11,-272.58,-272.64,-21,578,-4,22.9,3.8,-21.8,22.9,3.9,-21.5,5.73,2.48,-9.9,26.5
2013-12-21 00:12:00,0.0,1.91156,0.00040,404.895,0.019,0.1328,0.0008,140.004,45.000,31770.52273,1.91401,405.539,31.813,45.060,45.000,0.00,0.11,-272.58,-272.64,-22,578,-4,22.9,3.9,-21.7,22.9,3.9,-21.5,5.73,2.69,-9.9,26.4
2013-12-21 00:13:00,0.0,1.91146,0.00037,404.922,0.000,0.1332,0.0021,140.007,45.000,31771.99579,1.91393,405.571,31.813,45.060,45.000,0.00,0.11,-272.58,-272.64,-21,577,-4,22.9,3.8,-21.8,22.9,3.9,-21.5,5.73,2.53,-9.9,26.4
2013-12-21 00:14:00,0.0,1.91133,0.00030,404.922,0.000,0.1313,0.0022,140.000,45.000,31770.32251,1.91396,405.567,31.813,45.060,45.000,0.00,0.11,-272.58,-272.64,-22,578,-4,22.9,3.8,-21.8,22.9,3.9,-21.6,5.73,2.59,-9.9,26.3
2013-12-21 00:15:00,0.0,1.91154,0.00021,404.916,0.003,0.1319,0.0013,139.996,45.000,31767.45726,1.91397,405.561,31.813,45.060,45.000,0.00,0.11,-272.58,-272.64,-22,577,-4,22.9,3.8,-21.8,22.9,3.9,-21.6,5.73,2.65,-9.9,26.2
2013-12-21 00:16:00,0.0,1.91143,0.00048,404.915,0.000,0.1335,0.0015,139.999,45.000,31768.39843,1.91400,405.564,31.813,45.060,45.000,0.00,0.11,-272.57,-272.64,-22,578,-4,22.9,3.8,-21.8,22.9,3.9,-21.5,5.73,2.50,-9.9,26.2
2013-12-21 00:17:00,0.0,1.91145,0.00052,404.915,0.000,0.1322,0.0018,140.012,45.000,31772.65868,1.91388,405.562,31.811,45.060,45.000,0.00,0.11,-272.58,-272.64,-22,577,-4,22.9,3.9,-21.7,22.9,4.0,-21.4,5.73,2.70,-9.9,26.3
2013-12-21 00:18:00,0.0,1.91170,0.00058,404.915,0.000,0.1333,0.0028,139.994,45.000,31767.66829,1.91421,405.564,31.813,45.060,45.000,0.00,0.11,-272.58,-272.64,-22,578,-4,22.9,3.9,-21.7,22.9,4.0,-21.4,5.73,2.51,-9.9,26.1
2013-12-21 00:19:00,0.0,1.91117,0.00056,404.915,0.000,0.1334,0.0017,139.998,45.000,31768.51064,1.91363,405.568,31.813,45.060,45.000,0.00,0.11,-272.57,-272.64,-22,577,-4,22.9,3.9,-21.7,22.9,4.0,-21.4,5.73,2.63,-9.9,26.2
2013-12-21 00:20:00,0.0,1.91140,0.00041,404.915,0.000,0.1359,0.0019,140.002,45.000,31770.10414,1.91410,405.574,31.813,45.060,45.000,0.00,0.11,-272.58,-272.64,-22,578,-4,22.9,3.9,-21.7,22.9,4.0,-21.4,5.73,2.61,-9.9,26.3
2013-12-21 00:21:00,0.0,1.91103,0.00026,404.915,0.000,0.1349,0.0012,140.007,45.000,31770.78208,1.91367,405.574,31.812,45.060,45.000,0.00,0.11,-272.58,-272.64,-22,577,-4,22.9,3.9,-21.6,22.9,4.0,-21.3,5.73,2.52,-9.9,26.3
2013-12-21 00:22:00,0.0,1.91033,0.00028,404.915,0.000,0.1352,0.0013,140.000,45.000,31770.96476,1.91293,405.576,31.813,45.060,45.000,0.00,0.11,-272.58,-272.64,-22,578,-4,22.9,3.9,-21.6,22.9,4.0,-21.3,5.73,2.70,-9.9,26.2
2013-12-21 00:23:00,0.0,1.91055,0.00021,404.915,0.000,0.1362,0.0008,140.007,45.000,31772.13110,1.91311,405.577,31.811,45.060,45.000,0.00,0.11,-272.57,-272.64,-22,577,-4,22.9,3.9,-21.6,22.9,4.0,-21.3,5.73,2.49,-9.9,26.1
2013-12-21 00:24:00,0.0,1.91037,0.00026,404.915,0.000,0.1351,0.0024,140.005,45.000,31773.99416,1.91301,405.575,31.797,45.060,45.000,0.00,0.11,-272.58,-272.64,-22,578,-4,22.9,3.9,-21.6,22.8,4.0,-21.3,5.73,2.68,-9.9,26.1
2013-12-21 00:25:00,0.0,1.91045,0.00036,404.915,0.000,0.1363,0.0018,140.004,45.000,31773.51968,1.91289,405.578,31.772,45.060,45.000,0.00,0.11,-272.58,-272.64,-22,577,-4,22.9,3.9,-21.6,22.9,4.0,-21.3,5.73,2.54,-9.9,26.3
2013-12-21 00:26:00,0.0,1.91063,0.00045,404.915,0.000,0.1368,0.0007,140.002,45.000,31772.49259,1.91335,405.584,31.760,45.060,45.000,0.00,0.11,-272.57,-272.64,-22,578,-4,22.9,3.9,-21.5,22.9,4.0,-21.2,5.73,2.60,-9.9,26.3
2013-12-21 00:27:00,0.0,1.91056,0.00070,404.915,0.000,0.1362,0.0008,140.007,45.000,31773.84673,1.91304,405.580,31.762,45.060,45.000,0.00,0.11,-272.58,-272.64,-22,577,-4,22.9,3.9,-21.5,22.9,4.1,-21.1,5.73,2.65,-9.9,26.4
2013-12-21 00:28:00,0.0,1.91071,0.00036,404.915,0.000,0.1370,0.0010,139.994,45.000,31769.42737,1.91333,405.583,31.796,45.060,45.000,0.00,0.11,-272.58,-272.64,-21,578,-4,22.9,3.9,-21.5,22.9,4.1,-21.2,5.73,2.50,-9.9,26.4
2013-12-21 00:29:00,0.0,1.91061,0.00029,404.914,0.000,0.1350,0.0030,140.007,45.000,31772.74711,1.91316,405.576,31.793,45.060,45.000,0.00,0.11,-272.58,-272.64,-22,577,-4,22.9,3.9,-21.5,22.9,4.0,-21.2,5.73,2.70,-9.9,26.5
2013-12-21 00:30:00,0.0,1.91043,0.00044,404.914,0.000,0.1343,0.0020,139.998,45.000,31768.20032,1.91286,405.568,31.788,45.060,45.000,0.00,0.11,-272.57,-272.64,-22,577,-4,22.9,3.9,-21.6,22.9,4.0,-21.3,5.73,2.50,-9.9,26.4
2013-12-21 00:31:00,0.0,1.91035,0.00035,404.914,0.000,0.1336,0.0024,139.997,45.000,31767.51232,1.91295,405.566,31.797,45.060,45.000,0.00,0.11,-272.58,-272.64,-22,578,-4,22.9,3.9,-21.7,22.8,4.0,-21.4,5.73,2.63,-9.9,26.5
2013-12-21 00:32:00,0.0,1.90999,0.00038,404.914,0.000,0.1304,0.0012,139.998,45.000,31766.48327,1.91250,405.552,31.779,45.060,45.000,0.00,0.11,-272.58,-272.64,-21,577,-4,22.9,3.8,-21.9,22.9,3.9,-21.6,5.73,2.61,-9.9,26.5
2013-12-21 00:33:00,0.0,1.91002,0.00021,404.914,0.000,0.1315,0.0020,140.008,45.000,31767.85446,1.91248,405.553,31.780,45.060,45.000,0.00,0.11,-272.57,-272.64,-22,578,-4,22.9,3.8,-21.9,22.9,3.9,-21.6,5.73,2.51,-9.9,26.5
2013-12-21 00:34:00,0.0,1.91010,0.00054,404.914,0.000,0.1314,0.0010,139.996,45.000,31763.25383,1.91279,405.556,31.787,45.060,45.000,0.00,0.11,-272.58,-272.64,-22,577,-4,22.9,3.8,-21.8,22.9,3.9,-21.5,5.73,2.70,-10.0,26.6
2013-12-21 00:35:00,0.0,1.90986,0.00031,404.914,0.000,0.1338,0.0016,139.994,45.000,31764.83753,1.91226,405.564,31.786,45.060,45.000,0.00,0.11,-272.57,-272.64,-22,578,-4,22.9,3.9,-21.7,22.9,4.0,-21.5,5.73,2.49,-10.0,26.6
2013-12-21 00:36:00,0.0,1.90939,0.00028,404.914,0.000,0.1350,0.0014,140.000,45.000,31768.41369,1.91210,405.574,31.790,45.060,45.000,0.00,0.11,-272.57,-272.64,-22,577,-4,22.9,3.9,-21.7,22.9,4.0,-21.4,5.73,2.66,-10.0,26.7
2013-12-21 00:37:00,0.0,1.90942,0.00029,404.914,0.000,0.1335,0.0017,139.995,45.000,31766.25456,1.91189,405.565,31.804,45.060,45.000,0.00,0.11,-272.58,-272.64,-22,578,-4,22.9,3.8,-21.8,22.9,3.9,-21.5,5.73,2.58,-10.0,26.5
2013-12-21 00:38:00,0.0,1.90918,0.00028,404.914,0.000,0.1317,0.0016,140.005,45.000,31767.61662,1.91173,405.559,31.796,45.060,45.000,0.00,0.11,-272.58,-272.64,-22,577,-4,22.9,3.8,-21.9,22.9,3.9,-21.6,5.73,2.55,-10.0,26.4
2013-12-21 00:39:00,0.0,1.90950,0.00056,404.914,0.000,0.1314,0.0021,140.004,45.000,31765.86030,1.91180,405.555,31.778,45.060,45.000,0.00,0.11,-272.58,-272.64,-22,578,-4,22.9,3.8,-21.8,22.8,4.0,-21.5,5.73,2.68,-10.0,26.4
2013-12-21 00:40:00,0.0,1.90972,0.00022,404.914,0.000,0.1339,0.0016,140.005,45.000,31764.22573,1.91227,405.565,31.765,45.060,45.000,0.00,0.11,-272.58,-272.64,-22,577,-4,22.9,3.9,-21.8,22.9,4.0,-21.4,5.73,2.48,-9.9,26.5
2013-12-21 00:41:00,0.0,1.90924,0.00014,404.914,0.000,0.1347,0.0011,139.999,45.000,31767.39199,1.91186,405.571,31.758,45.060,45.000,0.00,0.11,-272.58,-272.64,-22,578,-4,22.9,3.9,-21.7,22.9,4.0,-21.4,5.73,2.69,-10.0,26.4
2013-12-21 00:42:00,0.0,1.90910,0.00030,404.914,0.000,0.1327,0.0010,140.007,45.000,31767.80791,1.91162,405.562,31.752,45.060,45.000,0.00,0.11,-272.58,-272.64,-22,577,-4,22.9,3.9,-21.7,22.9,4.0,-21.4,5.73,2.53,-10.0,26.3
2013-12-21 00:43:00,0.0,1.90916,0.00029,404.914,0.000,0.1349,0.0016,139.999,45.000,31762.83910,1.91166,405.572,31.750,45.060,45.000,0.00,0.11,-272.57,-272.64,-22,577,-4,22.9,3.9,-21.7,22.9,4.0,-21.4,5.73,2.60,-10.0,26.4
2013-12-21 00:44:00,0.0,1.90877,0.00029,404.914,0.000,0.1371,0.0019,139.991,45.000,31762.29208,1.91156,405.578,31.750,45.060,45.000,0.00,0.11,-272.58,-272.64,-23,577,-4,22.9,3.9,-21.6,22.8,4.0,-21.3,5.73,2.65,-10.0,26.4
2013-12-21 00:45:00,0.0,1.90885,0.00027,404.914,0.000,0.1365,0.0008,140.000,45.000,31765.13615,1.91128,405.583,31.750,45.060,45.000,0.00,0.11,-272.58,-272.64,-22,577,-4,22.8,3.9,-21.5,22.9,4.0,-21.2,5.73,2.50,-10.0,26.4
2013-12-21 00:46:00,0.0,1.90917,0.00039,404.889,0.041,0.1392,0.0012,140.003,45.000,31764.12339,1.91173,405.574,31.750,45.060,45.000,0.00,0.11,-272.57,-272.64,-22,577,-4,22.9,4.0,-21.4,22.8,4.1,-21.2,5.73,2.70,-10.0,26.6
2013-12-21 00:47:00,0.0,1.90902,0.00026,404.822,0.000,0.1377,0.0010,140.000,45.000,31764.41553,1.91173,405.497,31.750,45.060,45.000,0.00,0.11,-272.58,-272.65,-22,577,-4,22.9,4.0,-21.4,22.9,4.1,-21.1,5.73,2.50,-10.0,26.5
2013-12-21 00:48:00,0.0,1.90915,0.00051,404.822,0.000,0.1379,0.0011,140.000,45.000,31762.58530,1.91156,405.494,31.750,45.060,45.000,0.00,0.11,-272.58,-272.64,-23,577,-4,22.8,4.0,-21.5,22.9,4.1,-21.1,5.73,2.64,-10.0,26.5
2013-12-21 00:49:00,0.0,1.90917,0.00034,404.822,0.000,0.1363,0.0019,140.006,45.000,31763.76392,1.91184,405.490,31.750,45.060,45.000,0.00,0.11,-272.57,-272.64,-22,577,-4,22.9,3.9,-21.5,22.9,4.0,-21.2,5.73,2.61,-10.0,26.5
2013-12-21 00:50:00,0.0,1.90963,0.00017,404.822,0.000,0.1362,0.0013,139.996,45.000,31761.90812,1.91213,405.487,31.744,45.060,45.000,0.00,0.11,-272.57,-272.64,-23,578,-4,22.9,3.9,-21.6,22.9,4.0,-21.3,5.73,2.52,-10.0,26.5
2013-12-21 00:51:00,0.0,1.90983,0.00046,404.822,0.000,0.1335,0.0009,140.004,45.000,31761.78684,1.91214,405.476,31.732,45.060,45.000,0.00,0.11,-272.57,-272.64,-22,577,-4,22.8,3.9,-21.6,22.9,4.0,-21.3,5.73,2.70,-10.0,26.7
2013-12-21 00:52:00,0.0,1.90943,0.00061,404.822,0.000,0.1340,0.0020,140.008,45.000,31766.19181,1.91213,405.478,31.736,45.060,45.000,0.00,0.11,-272.58,-272.64,-23,578,-4,22.8,3.9,-21.6,22.8,4.0,-21.4,5.73,2.50,-10.0,26.8
2013-12-21 00:53:00,0.0,1.90993,0.00038,404.822,0.000,0.1340,0.0017,140.001,45.000,31761.21613,1.91244,405.476,31.739,45.060,45.000,0.00,0.11,-272.58,-272.64,-22,577,-4,22.8,3.9,-21.6,22.9,4.0,-21.3,5.73,2.64,-10.0,26.9
2013-12-21 00:54:00,0.0,1.91008,0.00048,404.942,0.107,0.1340,0.0013,140.002,45.000,31759.64276,1.91252,405.571,31.716,45.060,45.000,0.00,0.11,-272.58,-272.64,-22,577,-4,22.8,3.9,-21.6,22.8,4.0,-21.4,5.73,2.62,-10.0,26.8
2013-12-21 00:55:00,0.0,1.91050,0.00022,405.038,0.000,0.1347,0.0019,140.000,45.000,31759.56860,1.91304,405.695,31.704,45.060,45.000,0.00,0.11,-272.58,-272.64,-23,577,-4,22.8,3.9,-21.7,22.8,4.0,-21.4,5.73,2.51,-10.0,26.9
2013-12-21 00:56:00,0.0,1.91028,0.00032,405.038,0.000,0.1336,0.0020,140.001,45.000,31759.70676,1.91268,405.691,31.688,45.060,45.000,0.00,0.11,-272.58,-272.64,-22,578,-4,22.8,3.9,-21.7,22.8,4.0,-21.4,5.73,2.70,-10.0,26.9
2013-12-21 00:57:00,0.0,1.91050,0.00047,405.038,0.000,0.1323,0.0030,140.011,45.000,31761.83373,1.91291,405.687,31.688,45.060,45.000,0.00,0.11,-272.58,-272.64,-23,577,-4,22.8,3.9,-21.8,22.8,4.0,-21.4,5.73,2.50,-10.0,27.0
2013-12-21 00:58:00,0.0,1.91063,0.00022,405.038,0.000,0.1334,0.0004,140.000,45.000,31759.22544,1.91327,405.687,31.688,45.060,45.000,0.00,0.11,-272.58,-272.64,-22,577,-4,22.8,3.9,-21.8,22.8,3.9,-21.5,5.73,2.64,-10.1,26.9
2013-12-21 00:59:00,0.0,1.91000,0.00020,405.038,0.000,0.1323,0.0007,140.010,45.000,31762.05885,1.91265,405.684,31.688,45.060,45.000,0.00,0.11,-272.58,-272.64,-23,577,-4,22.8,3.8,-21.9,22.8,3.9,-21.5,5.73,2.61,-10.0,26.9
2013-12-21 01:00:00,0.0,1.90999,0.00045,405.038,0.000,0.1313,0.0008,140.003,45.000,31758.19195,1.91234,405.680,31.688,45.060,45.000,0.00,0.11,-272.57,-272.64,-22,577,-4,22.8,3.8,-21.9,22.8,3.9,-21.6,5.73,2.51,-10.1,26.9
2013-12-21 01:01:00,0.0,1.90997,0.00031,405.038,0.000,0.1320,0.0014,140.002,45.000,31757.29367,1.91247,405.682,31.680,45.060,45.000,0.00,0.11,-272.58,-272.64,-23,577,-4,22.8,3.8,-21.8,22.8,3.9,-21.5,5.73,2.70,-10.1,26.9
2013-12-21 01:02:00,0.0,1.90987,0.00041,405.038,0.000,0.1320,0.0022,140.001,45.000,31756.79449,1.91252,405.685,31.663,45.060,45.000,0.00,0.11,-272.58,-272.64,-22,577,-4,22.8,3.9,-21.8,22.8,3.9,-21.5,5.73,2.51,-10.1,26.9
2013-12-21 01:03:00,0.0,1.91015,0.00033,405.038,0.000,0.1328,0.0013,139.992,45.000,31754.12959,1.91247,405.684,31.633,45.060,45.000,0.00,0.11,-272.57,-272.64,-23,578,-4,22.8,3.9,-21.8,22.8,4.0,-21.5,5.73,2.63,-10.1,26.8
2013-12-21 01:04:00,0.0,1.90993,0.00048,405.038,0.000,0.1338,0.0020,139.994,45.000,31754.41225,1.91249,405.690,31.627,45.060,45.000,0.00,0.11,-272.58,-272.64,-22,577,-4,22.8,3.9,-21.7,22.8,4.0,-21.5,5.73,2.63,-10.1,26.9
2013-12-21 01:05:00,0.0,1.90983,0.00035,405.038,0.000,0.1345,0.0012,140.004,45.000,31758.57886,1.91237,405.694,31.625,45.060,45.000,0.00,0.11,-272.57,-272.64,-22,577,-4,22.8,3.9,-21.7,22.8,4.0,-21.4,5.73,2.50,-10.1,26.8
2013-12-21 01:06:00,0.0,1.91011,0.00034,405.038,0.000,0.1351,0.0016,140.001,45.000,31754.52342,1.91257,405.695,31.620,45.060,45.000,0.00,0.11,-272.58,-272.64,-23,577,-4,22.8,3.9,-21.7,22.8,4.0,-21.4,5.73,2.70,-10.1,26.8
2013-12-21 01:07:00,0.0,1.91045,0.00018,405.038,0.000,0.1359,0.0013,139.996,45.000,31754.78815,1.91300,405.702,31.589,45.060,45.000,0.00,0.11,-272.57,-272.64,-22,578,-4,22.8,3.9,-21.6,22.8,4.0,-21.3,5.73,2.49,-10.1,26.9
2013-12-21 01:08:00,0.0,1.91042,0.00015,405.038,0.000,0.1357,0.0009,140.002,45.000,31755.92642,1.91299,405.700,31.568,45.060,45.000,0.00,0.11,-272.58,-272.64,-23,577,-4,22.8,3.9,-21.6,22.8,4.0,-21.3,5.73,2.67,-10.2,27.0
2013-12-21 01:09:00,0.0,1.91034,0.00036,405.038,0.000,0.1351,0.0016,139.993,45.000,31755.50944,1.91298,405.697,31.563,45.060,45.000,0.00,0.11,-272.58,-272.64,-22,575,-4,22.8,3.9,-21.6,22.8,4.0,-21.3,5.73,2.56,-10.2,27.0
2013-12-21 01:10:00,0.0,1.91010,0.00035,405.038,0.000,0.1337,0.0017,139.996,45.000,31754.11029,1.91253,405.693,31.563,45.060,45.000,0.00,0.11,-272.58,-272.63,-24,577,-4,22.8,3.9,-21.6,22.8,4.0,-21.4,5.73,2.57,-10.2,26.9
2013-12-21 01:11:00,0.0,1.91069,0.00045,405.038,0.000,0.1336,0.0021,139.996,45.000,31753.18474,1.91324,405.691,31.563,45.060,45.000,0.00,0.11,-272.58,-272.64,-23,578,-6,22.8,3.9,-21.7,22.8,4.0,-21.4,5.73,2.68,-10.2,26.9
2013-12-21 01:12:00,0.0,1.91058,0.00042,405.038,0.000,0.1354,0.0015,139.996,45.000,31752.62772,1.91307,405.697,31.563,45.060,45.000,0.00,0.11,-272.58,-272.64,-24,576,-7,22.7,3.9,-21.8,22.8,4.0,-21.4,5.73,2.49,-10.2,27.0
2013-12-21 01:13:00,0.0,1.91058,0.00029,405.038,0.000,0.1323,0.0020,140.005,45.000,31756.79299,1.91309,405.685,31.531,45.060,45.000,0.00,0.11,-272.58,-272.64,-21,577,-3,22.7,3.9,-21.8,22.8,4.0,-21.5,5.73,2.69,-10.2,27.0
2013-12-21 01:14:00,0.0,1.91070,0.00048,405.038,0.000,0.1322,0.0016,139.999,45.000,31753.08493,1.91305,405.684,31.528,45.060,45.000,0.00,0.11,-272.57,-272.64,-23,577,-4,22.7,3.9,-21.8,22.7,4.0,-21.5,5.73,2.53,-10.2,26.9
2013-12-21 01:15:00,0.0,1.91109,0.00039,405.038,0.000,0.1335,0.0005,139.997,45.000,31750.80441,1.91364,405.687,31.521,45.060,45.000,0.00,0.11,-272.58,-272.64,-22,577,-4,22.7,3.9,-21.8,22.7,4.0,-21.5,5.73,2.60,-10.2,27.0
2013-12-21 01:16:00,0.0,1.91099,0.00028,405.038,0.000,0.1334,0.0014,140.003,45.000,31751.83450,1.91350,405.688,31.500,45.060,45.000,0.00,0.11,-272.58,-272.64,-22,577,-4,22.7,3.9,-21.8,22.7,4.0,-21.5,5.73,2.65,-10.3,27.1
2013-12-21 01:17:00,0.0,1.91136,0.00032,405.038,0.000,0.1334,0.0006,140.003,45.000,31751.04762,1.91381,405.691,31.500,45.060,45.000,0.00,0.11,-272.57,-272.64,-22,577,-4,22.7,3.9,-21.8,22.7,4.0,-21.5,5.73,2.50,-10.2,27.0
2013-12-21 01:18:00,0.0,1.91083,0.00019,405.038,0.000,0.1323,0.0014,139.996,45.000,31748.41472,1.91347,405.685,31.500,45.060,45.000,0.00,0.11,-272.58,-272.64,-22,577,-4,22.7,3.9,-21.8,22.7,4.0,-21.5,5.73,2.70,-10.3,27.1
2013-12-21 01:19:00,0.0,1.91132,0.00025,405.038,0.000,0.1322,0.0014,140.008,45.000,31752.42634,1.91375,405.684,31.500,45.060,45.000,0.00,0.11,-272.58,-272.64,-22,576,-4,22.7,3.9,-21.8,22.7,4.0,-21.5,5.73,2.51,-10.3,27.1
2013-12-21 01:20:00,0.0,1.91119,0.00023,405.038,0.000,0.1326,0.0011,139.997,45.000,31749.79396,1.91374,405.684,31.496,45.060,45.000,0.00,0.11,-272.58,-272.64,-22,577,-4,22.7,3.9,-21.9,22.7,4.0,-21.5,5.73,2.64,-10.3,27.0
2013-12-21 01:21:00,0.0,1.91081,0.00042,405.038,0.000,0.1327,0.0017,139.998,45.000,31749.98005,1.91335,405.686,31.498,45.060,45.000,0.00,0.11,-272.58,-272.64,-22,576,-4,22.7,3.9,-21.9,22.7,4.0,-21.5,5.73,2.61,-10.3,27.1
2013-12-21 01:22:00,0.0,1.91152,0.00055,405.038,0.000,0.1316,0.0014,140.009,45.000,31752.79002,1.91375,405.681,31.497,45.060,45.000,0.00,0.11,-272.58,-272.64,-22,577,-4,22.7,3.9,-21.9,22.7,4.0,-21.5,5.73,2.53,-10.3,27.1
2013-12-21 01:23:00,0.0,1.91164,0.00034,405.038,0.000,0.1314,0.0022,139.998,45.000,31748.31342,1.91426,405.679,31.489,45.060,45.000,0.00,0.11,-272.58,-272.64,-22,576,-4,22.7,3.9,-21.9,22.7,4.0,-21.5,5.73,2.70,-10.3,27.1
2013-12-21 01:24:00,0.0,1.91151,0.00047,405.038,0.000,0.1316,0.0011,140.001,45.000,31746.04226,1.91406,405.681,31.500,45.060,45.000,0.00,0.11,-272.57,-272.64,-22,577,-4,22.7,3.9,-21.8,22.7,4.0,-21.5,5.73,2.49,-10.3,27.1
2013-12-21 01:25:00,0.0,1.91143,0.00055,405.038,0.000,0.1342,0.0012,139.998,45.000,31745.42785,1.91388,405.691,31.500,45.060,45.000,0.00,0.11,-272.58,-272.64,-22,576,-4,22.6,3.9,-21.8,22.7,4.0,-21.5,5.73,2.67,-10.4,27.1
2013-12-21 01:26:00,0.0,1.91153,0.00029,405.156,0.168,0.1354,0.0022,139.999,45.000,31743.76612,1.91406,405.778,31.500,45.060,45.000,0.00,0.11,-272.58,-272.64,-22,576,-4,22.7,3.9,-21.6,22.6,4.1,-21.3,5.73,2.58,-10.4,27.1
2013-12-21 01:27:00,0.0,1.91149,0.00022,405.393,0.000,0.1349,0.0019,140.004,45.000,31747.42383,1.91404,406.053,31.500,45.060,45.000,0.00,0.11,-272.57,-272.64,-22,576,-4,22.6,4.0,-21.6,22.7,4.1,-21.3,5.73,2.55,-10.4,27.0
2013-12-21 01:28:00,0.0,1.91151,0.00034,405.393,0.000,0.1366,0.0009,140.004,45.000,31745.85068,1.91415,406.058,31.500,45.060,45.000,0.00,0.11,-272.58,-272.64,-22,576,-4,22.6,4.0,-21.6,22.7,4.1,-21.3,5.73,2.69,-10.4,27.0
2013-12-21 01:29:00,0.0,1.91177,0.00025,405.393,0.000,0.1351,0.0020,139.998,45.000,31744.30924,1.91425,406.056,31.500,45.060,45.000,0.00,0.11,-272.58,-272.64,-22,576,-4,22.6,4.0,-21.6,22.7,4.1,-21.3,5.73,2.49,-10.4,27.0
2013-12-21 01:30:00,0.0,1.91169,0.00024,405.393,0.000,0.1348,0.0021,140.002,45.000,31743.90610,1.91418,406.053,31.500,45.060,45.000,0.00,0.11,-272.57,-272.64,-22,576,-4,22.6,4.0,-21.6,22.7,4.1,-21.3,5.73,2.68,-10.4,27.0
2013-12-21 01:31:00,0.0,1.91147,0.00029,405.393,0.000,0.1358,0.0016,140.004,45.000,31744.55010,1.91418,406.056,31.500,45.060,45.000,0.00,0.11,-272.57,-272.64,-22,576,-4,22.6,4.0,-21.6,22.7,4.1,-21.2,5.73,2.56,-10.4,27.0
2013-12-21 01:32:00,0.0,1.91157,0.00021,405.393,0.000,0.1368,0.0014,140.000,45.000,31742.85446,1.91407,406.059,31.497,45.060,45.000,0.00,0.11,-272.58,-272.65,-21,576,-4,22.6,4.0,-21.6,22.7,4.1,-21.3,5.73,2.57,-10.4,27.1
2013-12-21 01:33:00,0.0,1.91184,0.00016,405.393,0.000,0.1359,0.0019,139.999,45.000,31740.68927,1.91434,406.059,31.484,45.060,45.000,0.00,0.11,-272.58,-272.64,-22,577,-4,22.6,4.0,-21.6,22.6,4.1,-21.3,5.73,2.68,-10.4,27.0
2013-12-21 01:34:00,0.0,1.91194,0.00020,405.393,0.000,0.1353,0.0006,140.002,45.000,31743.64471,1.91448,406.055,31.490,45.060,45.000,0.00,0.11,-272.58,-272.64,-22,576,-4,22.6,4.0,-21.6,22.6,4.1,-21.3,5.73,2.49,-10.4,27.0
2013-12-21 01:35:00,0.0,1.91147,0.00020,405.393,0.000,0.1375,0.0014,140.002,45.000,31743.34962,1.91411,406.062,31.482,45.060,45.000,0.00,0.11,-272.58,-272.64,-22,577,-4,22.6,4.0,-21.5,22.6,4.1,-21.3,5.73,2.68,-10.4,27.1
2013-12-21 01:36:00,0.0,1.91165,0.00016,405.368,0.042,0.1362,0.0015,140.002,45.000,31743.22160,1.91424,406.044,31.491,45.060,45.000,0.00,0.11,-272.58,-272.64,-22,576,-4,22.6,4.0,-21.5,22.6,4.1,-21.3,5.73,2.57,-10.4,27.1
2013-12-21 01:37:00,0.0,1.91179,0.00053,405.300,0.000,0.1365,0.0020,140.001,45.000,31743.46771,1.91445,405.967,31.492,45.060,45.000,0.00,0.11,-272.58,-272.64,-22,577,-4,22.6,4.0,-21.6,22.6,4.1,-21.3,5.73,2.56,-10.4,27.1
2013-12-21 01:38:00,0.0,1.91184,0.00042,405.300,0.000,0.1353,0.0015,140.006,45.000,31743.84632,1.91422,405.963,31.491,45.060,45.000,0.00,0.11,-272.58,-272.64,-22,576,-4,22.6,4.0,-21.6,22.6,4.1,-21.3,5.73,2.69,-10.4,27.1
2013-12-21 01:39:00,0.0,1.91167,0.00030,405.300,0.000,0.1363,0.0014,139.998,45.000,31744.20065,1.91441,405.964,31.484,45.060,45.000,0.00,0.11,-272.58,-272.64,-22,576,-4,22.6,4.0,-21.6,22.6,4.1,-21.3,5.73,2.49,-10.4,27.0
2013-12-21 01:40:00,0.0,1.91160,0.00022,405.300,0.000,0.1358,0.0018,139.996,45.000,31742.00455,1.91406,405.963,31.486,45.060,45.000,0.00,0.11,-272.57,-272.64,-22,576,-4,22.6,4.0,-21.6,22.6,4.1,-21.3,5.73,2.66,-10.5,26.9
2013-12-21 01:41:00,0.0,1.91142,0.00035,405.300,0.000,0.1350,0.0015,139.999,45.000,31743.72101,1.91410,405.962,31.476,45.060,45.000,0.00,0.11,-272.58,-272.64,-22,576,-4,22.6,4.0,-21.6,22.6,4.1,-21.3,5.73,2.59,-10.4,26.9
2013-12-21 01:42:00,0.0,1.91030,0.00052,405.300,0.000,0.1351,0.0013,140.004,45.000,31745.07735,1.91319,405.958,31.444,45.060,45.000,0.00,0.11,-272.58,-272.64,-22,576,-4,22.6,4.0,-21.6,22.6,4.1,-21.3,5.73,2.55,-10.5,26.9
2013-12-21 01:43:00,0.0,1.91032,0.00022,405.300,0.000,0.1352,0.0007,139.994,45.000,31738.73580,1.91270,405.961,31.445,45.061,45.000,0.00,0.11,-272.58,-272.64,-22,576,-4,22.6,4.0,-21.6,22.6,4.1,-21.3,5.73,2.69,-10.5,26.9
2013-12-21 01:44:00,0.0,1.91026,0.00053,405.232,0.052,0.1377,0.0024,140.002,45.000,31742.09014,1.91283,405.913,31.440,45.061,45.000,0.00,0.11,-272.57,-272.64,-22,576,-4,22.6,4.0,-21.5,22.6,4.1,-21.2,5.73,2.49,-10.5,27.0
2013-12-21 01:45:00,0.0,1.91031,0.00033,405.174,0.020,0.1377,0.0019,139.992,45.000,31738.16858,1.91303,405.850,31.444,45.061,45.000,0.00,0.11,-272.58,-272.64,-22,576,-4,22.6,4.0,-21.5,22.6,4.1,-21.2,5.73,2.68,-10.5,27.0